FW9446 Weather Reports


Display with metric or nautical units.
time (UTC)temp
F
wind
direction
speed
MPH
gust
MPH
rain 1hr
in
rain 24hr
in
rain mn
in
humidity
%
barometer
mb
20260506215558 65 0 0.0 1.0 0.01 1.25 1.25 97 1012.5
20260506215058 65 0 0.0 1.0 0.01 1.25 1.25 98 1012.2
20260506214558 65 0 0.0 1.0 0.01 1.25 1.25 98 1012.3
20260506214058 65 0 0.0 2.0 0.01 1.25 1.25 97 1012.4
20260506213557 65 0 0.0 2.0 0.01 1.25 1.25 97 1012.5
20260506213110 65 0 0.0 1.0 0.00 1.24 1.24 97 1012.3
20260506212558 65 0 0.0 0.0 0.00 1.24 1.24 97 1012.0
20260506212101 65 0 0.0 0.0 0.00 1.24 1.24 97 1011.9
20260506211600 65 0 0.0 0.0 0.01 1.24 1.24 97 1012.2
20260506211100 65 0 0.0 0.0 0.01 1.24 1.24 97 1012.3
20260506210557 65 0 0.0 0.0 0.01 1.24 1.24 97 1012.3
20260506210106 65 0 0.0 0.0 0.01 1.24 1.24 97 1012.5
20260506205557 65 0 0.0 0.0 0.01 1.24 1.24 96 1012.4
20260506205057 65 0 0.0 0.0 0.01 1.24 1.24 97 1012.6
20260506204607 65 0 0.0 1.0 0.01 1.24 1.24 96 1012.8
20260506204058 65 0 0.0 1.0 0.01 1.24 1.24 96 1012.9
20260506203558 65 0 0.0 2.0 0.01 1.24 1.24 96 1013.0
20260506203105 65 0 0.0 2.0 0.03 1.24 1.24 96 1012.9
20260506202558 65 0 0.0 2.0 0.06 1.24 1.24 96 1013.0
20260506202058 65 195 0.0 2.0 0.06 1.24 1.24 96 1013.2
20260506201556 65 0 0.0 2.0 0.06 1.23 1.23 96 1013.3
20260506201057 66 0 0.0 5.0 0.06 1.23 1.23 96 1013.5
20260506200558 66 0 1.0 5.0 0.07 1.23 1.23 96 1013.2
20260506195558 66 0 0.0 4.0 0.20 1.23 1.23 96 1013.1
20260506195058 66 0 0.0 4.0 0.23 1.23 1.23 96 1013.0
20260506194557 66 0 1.0 4.0 0.26 1.23 1.23 96 1012.9
20260506194058 66 269 0.0 2.0 0.31 1.23 1.23 97 1013.3
20260506193558 66 0 0.0 6.0 0.43 1.23 1.23 97 1013.4
20260506193104 66 0 0.0 6.0 0.48 1.21 1.21 96 1013.3
20260506192559 66 0 0.0 3.0 0.47 1.17 1.17 97 1014.1
20260506192057 66 251 0.0 5.0 0.48 1.17 1.17 96 1013.6
20260506191611 66 252 0.0 7.0 0.47 1.16 1.16 96 1012.8
20260506191058 66 288 1.0 7.0 0.49 1.16 1.16 95 1013.1
20260506190556 67 255 0.0 2.0 0.51 1.16 1.16 96 1013.0
20260506190058 67 0 0.0 3.0 0.42 1.05 1.05 96 1013.4
20260506185558 67 0 0.0 3.0 0.39 1.03 1.03 97 1013.5
20260506185058 67 331 0.0 2.0 0.36 1.00 1.00 96 1013.5
20260506184622 67 0 0.0 0.0 0.33 0.97 0.97 96 1013.8
20260506184058 68 0 0.0 0.0 0.28 0.92 0.92 96 1014.0
20260506183601 68 0 0.0 0.0 0.16 0.80 0.80 96 1014.2
20260506183115 68 0 0.0 0.0 0.09 0.73 0.73 95 1014.1
20260506182558 68 0 0.0 0.0 0.07 0.71 0.71 95 1014.1
20260506182057 68 0 0.0 0.0 0.06 0.70 0.70 94 1014.0
20260506181602 69 0 0.0 1.0 0.06 0.70 0.70 94 1014.0
20260506181058 69 0 0.0 3.0 0.03 0.67 0.67 93 1013.8
20260506180558 69 0 0.0 3.0 0.01 0.65 0.65 93 1014.2
20260506180059 69 0 0.0 3.0 0.00 0.64 0.64 92 1014.3
20260506175557 69 0 0.0 3.0 0.00 0.64 0.64 92 1014.3
20260506175058 69 0 0.0 5.0 0.00 0.64 0.64 92 1014.2
20260506174559 69 0 1.0 5.0 0.00 0.64 0.64 91 1014.1
20260506174057 69 328 0.0 4.0 0.00 0.64 0.64 91 1014.0
20260506173601 69 0 0.0 4.0 0.00 0.64 0.64 91 1014.1
20260506173100 69 0 0.0 5.0 0.00 0.64 0.64 91 1014.2
20260506172557 69 0 1.0 5.0 0.00 0.64 0.64 91 1014.1
20260506172058 69 130 1.0 6.0 0.00 0.64 0.64 92 1014.0
20260506171607 69 325 1.0 6.0 0.00 0.64 0.64 91 1014.1
20260506171058 69 0 0.0 6.0 0.00 0.64 0.64 92 1014.0
20260506170558 69 0 0.0 8.0 0.00 0.64 0.64 92 1014.1
20260506165557 69 0 0.0 7.0 0.00 0.64 0.64 92 1013.9
20260506165058 69 211 0.0 7.0 0.00 0.64 0.64 92 1013.8
20260506164559 69 223 0.0 7.0 0.00 0.64 0.64 93 1013.7
20260506164058 69 213 0.0 7.0 0.00 0.64 0.64 92 1013.7
20260506163642 69 254 1.0 10.0 0.00 0.64 0.64 93 1013.8
20260506163106 69 159 2.0 11.0 0.00 0.64 0.64 93 1013.6
20260506162557 68 273 1.0 11.0 0.00 0.64 0.64 94 1013.6
20260506162100 68 0 1.0 11.0 0.00 0.64 0.64 94 1013.7
20260506161600 68 141 2.0 11.0 0.00 0.64 0.64 95 1013.8
20260506161057 67 315 1.0 8.0 0.00 0.64 0.64 96 1013.7
20260506160558 67 0 2.0 8.0 0.00 0.64 0.64 96 1013.8
20260506160108 67 0 1.0 7.0 0.00 0.64 0.64 96 1013.7
20260506155559 67 237 0.0 7.0 0.00 0.64 0.64 97 1013.8
20260506155058 67 0 1.0 7.0 0.01 0.64 0.64 97 1014.3
20260506154557 67 301 1.0 7.0 0.03 0.64 0.64 98 1014.3
20260506154100 67 313 0.0 5.0 0.07 0.64 0.64 98 1014.5
20260506153558 66 272 1.0 5.0 0.18 0.64 0.64 98 1014.5
20260506153057 66 0 0.0 2.0 0.36 0.64 0.64 98 1014.1
20260506152557 65 0 0.0 2.0 0.47 0.64 0.64 98 1013.8
20260506152058 65 0 0.0 3.0 0.51 0.64 0.64 98 1013.9
20260506151602 65 0 0.0 3.0 0.54 0.64 0.64 97 1013.8
20260506151057 65 0 0.0 3.0 0.56 0.64 0.64 97 1013.9
20260506150557 65 0 0.0 3.0 0.57 0.64 0.64 97 1014.4
20260506150058 64 0 0.0 9.0 0.57 0.64 0.64 97 1014.4
20260506145557 64 0 0.0 9.0 0.58 0.64 0.64 97 1014.5
20260506145057 64 286 0.0 3.0 0.58 0.63 0.63 97 1013.9
20260506144604 64 0 0.0 3.0 0.56 0.61 0.61 96 1015.2
20260506144058 64 163 0.0 3.0 0.52 0.56 0.56 96 1015.6
20260506143557 64 0 0.0 3.0 0.42 0.46 0.46 96 1015.4
20260506143102 64 166 0.0 1.0 0.25 0.28 0.28 96 1015.7
20260506142558 64 0 0.0 1.0 0.15 0.17 0.17 95 1015.3
20260506142059 65 0 0.0 0.0 0.11 0.12 0.12 96 1015.0
20260506141600 65 0 0.0 0.0 0.10 0.10 0.10 95 1014.7
20260506141058 65 0 0.0 0.0 0.08 0.08 0.08 95 1014.7
20260506140558 65 0 0.0 0.0 0.07 0.07 0.07 95 1014.6
20260506140103 65 0 0.0 0.0 0.07 0.07 0.07 94 1014.4
20260506135557 65 0 0.0 0.0 0.05 0.05 0.05 94 1014.4
20260506135057 65 0 0.0 0.0 0.05 0.05 0.05 94 1014.5
20260506134559 65 0 0.0 1.0 0.05 0.05 0.05 93 1014.3
20260506134058 65 0 0.0 1.0 0.04 0.04 0.04 92 1014.2
20260506133557 65 336 0.0 3.0 0.04 0.04 0.04 92 1014.3
20260506133057 66 0 0.0 4.0 0.03 0.03 0.03 91 1014.1
20260506132557 66 0 0.0 4.0 0.02 0.02 0.02 90 1014.1
20260506132059 66 0 0.0 3.0 0.01 0.01 0.01 90 1014.0
20260506131617 66 0 0.0 3.0 0.00 0.00 0.00 89 1014.1
20260506131100 66 0 0.0 2.0 0.00 0.00 0.00 88 1013.9
20260506130558 66 0 0.0 3.0 0.00 0.00 0.00 88 1013.6
20260506130059 67 0 0.0 10.0 0.00 0.00 0.00 87 1013.6
20260506125557 67 0 0.0 10.0 0.00 0.00 0.00 86 1013.7
20260506125058 67 0 1.0 10.0 0.00 0.00 0.00 86 1013.5
20260506124559 67 234 0.0 7.0 0.00 0.00 0.00 86 1013.4
20260506124057 67 242 0.0 5.0 0.00 0.00 0.00 85 1013.2
20260506123558 67 275 1.0 7.0 0.00 0.00 0.00 85 1013.3
20260506123057 67 0 1.0 7.0 0.00 0.00 0.00 85 1013.1
20260506122557 67 202 0.0 4.0 0.00 0.00 0.00 85 1013.1
20260506122057 67 0 1.0 4.0 0.00 0.00 0.00 85 1013.0
20260506121600 67 163 0.0 7.0 0.00 0.00 0.00 84 1012.9
20260506121057 67 213 1.0 7.0 0.00 0.00 0.00 84 1012.8
20260506120600 67 236 1.0 7.0 0.00 0.00 0.00 84 1012.9
20260506120103 67 0 0.0 3.0 0.00 0.00 0.00 84 1012.8
20260506115557 67 296 0.0 2.0 0.00 0.00 0.00 84 1012.7
20260506115056 67 223 0.0 2.0 0.00 0.00 0.00 84 1012.7
20260506114558 67 0 0.0 2.0 0.00 0.00 0.00 84 1012.7
20260506114058 67 0 0.0 3.0 0.00 0.00 0.00 83 1012.6
20260506113557 67 0 0.0 4.0 0.00 0.00 0.00 83 1012.6
20260506113057 67 0 1.0 5.0 0.00 0.00 0.00 83 1012.5
20260506112558 67 171 1.0 5.0 0.00 0.00 0.00 82 1012.3
20260506112057 67 296 0.0 5.0 0.00 0.00 0.00 82 1012.4
20260506111557 67 0 0.0 6.0 0.00 0.00 0.00 82 1012.3
20260506111100 67 272 2.0 6.0 0.00 0.00 0.00 82 1012.5
20260506110557 67 0 1.0 7.0 0.00 0.00 0.00 82 1012.5
20260506110058 67 265 1.0 7.0 0.00 0.00 0.00 82 1012.4
20260506105557 67 228 0.0 2.0 0.00 0.00 0.00 82 1012.3
20260506105100 67 0 0.0 2.0 0.00 0.00 0.00 82 1012.3
20260506104608 67 0 0.0 3.0 0.00 0.00 0.00 82 1012.2
20260506104101 67 0 0.0 5.0 0.00 0.00 0.00 81 1012.1
20260506103557 67 0 0.0 7.0 0.00 0.00 0.00 81 1011.7
20260506103102 67 321 1.0 7.0 0.00 0.00 0.00 80 1011.5
20260506102559 67 0 1.0 7.0 0.00 0.00 0.00 80 1011.3
20260506102057 67 0 2.0 6.0 0.00 0.00 0.00 80 1011.5
20260506101601 68 0 0.0 7.0 0.00 0.00 0.00 80 1011.7
20260506101057 68 0 2.0 7.0 0.00 0.00 0.00 79 1011.6
20260506100557 68 225 2.0 6.0 0.00 0.00 0.00 79 1011.7
20260506100114 68 175 1.0 7.0 0.00 0.00 0.00 79 1011.8
20260506095559 68 167 1.0 7.0 0.00 0.00 0.00 79 1011.9
20260506095101 68 235 0.0 8.0 0.00 0.00 0.00 79 1011.9
20260506094600 68 235 1.0 8.0 0.00 0.00 0.00 79 1011.8
20260506094057 68 0 1.0 8.0 0.00 0.00 0.00 79 1011.7
20260506093559 68 207 0.0 6.0 0.00 0.00 0.00 79 1011.8
20260506093059 68 290 0.0 6.0 0.00 0.00 0.00 79 1011.9
20260506092557 68 0 1.0 6.0 0.00 0.00 0.00 78 1011.7
20260506092101 68 0 1.0 4.0 0.00 0.00 0.00 78 1011.6
20260506091558 68 0 0.0 4.0 0.00 0.00 0.00 78 1011.6
20260506091057 68 0 0.0 4.0 0.00 0.00 0.00 77 1011.6
20260506090558 68 230 0.0 4.0 0.00 0.00 0.00 77 1011.5
20260506090101 68 310 0.0 4.0 0.00 0.00 0.00 77 1011.5
20260506085557 68 0 0.0 3.0 0.00 0.00 0.00 77 1011.5
20260506085100 68 0 0.0 3.0 0.00 0.00 0.00 77 1011.4
20260506084604 68 0 0.0 3.0 0.00 0.00 0.00 76 1011.3
20260506084102 68 0 0.0 3.0 0.00 0.00 0.00 76 1011.4
20260506083558 68 0 0.0 5.0 0.00 0.00 0.00 76 1011.3
20260506083101 68 22 0.0 5.0 0.00 0.00 0.00 76 1011.2
20260506082557 68 0 0.0 4.0 0.00 0.00 0.00 76 1011.3
20260506082057 68 317 0.0 4.0 0.00 0.00 0.00 76 1011.3
20260506081601 68 0 0.0 2.0 0.00 0.00 0.00 76 1011.3
20260506081057 68 0 0.0 3.0 0.00 0.00 0.00 76 1011.5
20260506080557 68 0 0.0 3.0 0.00 0.00 0.00 76 1011.4
20260506073058 69 0 0.0 7.0 0.00 0.00 0.00 73 1011.2
20260506072557 69 273 1.0 7.0 0.00 0.00 0.00 73 1011.1
20260506072057 69 0 1.0 6.0 0.00 0.00 0.00 73 1011.2
20260506071602 69 244 1.0 6.0 0.00 0.00 0.00 72 1011.1
20260506071057 69 306 0.0 7.0 0.00 0.00 0.00 72 1011.2
20260506070600 69 0 0.0 7.0 0.00 0.00 0.00 71 1011.3
20260506070104 69 331 0.0 3.0 0.00 0.00 0.00 71 1011.3
20260506062100 69 0 0.0 3.0 0.00 0.00 0.00 69 1011.8
20260506061558 69 0 0.0 3.0 0.00 0.00 0.00 69 1011.9
20260506061057 69 0 0.0 4.0 0.00 0.00 0.00 69 1012.0
20260506060557 69 295 0.0 4.0 0.00 0.00 0.00 69 1012.0
20260506060108 69 255 0.0 3.0 0.00 0.00 0.00 69 1012.0
20260506051100 69 304 0.0 3.0 0.00 0.00 0.00 66 1012.0
20260506050557 69 0 0.0 4.0 0.00 0.00 0.00 66 1012.2
20260506050108 69 0 0.0 4.0 0.00 0.00 0.00 66 1012.1
20260506045057 69 298 0.0 3.0 0.00 0.00 0.00 67 1012.2
20260506044606 69 0 0.0 3.0 0.00 0.00 0.00 67 1012.3
20260506044056 69 0 0.0 3.0 0.00 0.00 0.00 67 1012.2
20260506043556 69 313 0.0 2.0 0.00 0.00 0.00 67 1012.2
20260506043110 69 0 0.0 2.0 0.00 0.00 0.00 68 1012.2
20260506042557 69 0 0.0 5.0 0.00 0.00 0.00 69 1012.2
20260506042058 69 0 0.0 5.0 0.00 0.00 0.00 68 1012.1
20260506041606 69 0 0.0 5.0 0.00 0.00 0.00 66 1012.2
20260506041058 69 0 0.0 5.0 0.00 0.00 0.00 69 1012.3
20260506040557 68 0 1.0 5.0 0.00 0.00 0.00 66 1012.3
20260506040109 68 0 0.0 2.0 0.00 0.00 0.00 68 1012.3
20260506035557 68 0 0.0 3.0 0.00 0.00 0.00 69 1012.3
20260506035057 68 0 0.0 3.0 0.00 0.00 0.00 68 1012.4
20260506034601 68 0 0.0 3.0 0.00 0.00 0.00 68 1012.5
20260506034056 68 0 0.0 3.0 0.00 0.00 0.00 67 1012.5
20260506033556 68 0 0.0 0.0 0.00 0.00 0.00 68 1012.5
20260506033058 68 0 0.0 0.0 0.00 0.00 0.00 67 1012.7
20260506032557 69 0 0.0 0.0 0.00 0.00 0.00 67 1012.6
20260506032058 69 0 0.0 0.0 0.00 0.00 0.00 68 1012.5
20260506031604 69 0 0.0 0.0 0.00 0.00 0.00 65 1012.3
20260506031057 69 0 0.0 0.0 0.00 0.00 0.00 68 1012.3
20260506030557 70 0 0.0 4.0 0.00 0.00 0.00 64 1012.3
20260506030107 70 0 0.0 4.0 0.00 0.00 0.00 64 1012.6
20260506025557 70 249 0.0 2.0 0.00 0.00 0.00 63 1012.5
20260506025057 70 0 0.0 3.0 0.00 0.00 0.00 62 1012.7
20260506024600 70 0 0.0 4.0 0.00 0.00 0.00 62 1012.8
20260506024057 71 0 0.0 4.0 0.00 0.00 0.00 62 1012.7
20260506023557 71 0 0.0 1.0 0.00 0.00 0.00 61 1012.8
20260506023058 71 233 0.0 8.0 0.00 0.00 0.00 61 1012.8
20260506022557 71 299 0.0 8.0 0.00 0.00 0.00 60 1012.5
20260506022057 71 186 1.0 8.0 0.00 0.00 0.00 60 1012.3
20260506021601 71 296 0.0 2.0 0.00 0.00 0.00 61 1012.5
20260506021057 71 0 0.0 4.0 0.00 0.00 0.00 60 1012.6
20260506020556 71 248 1.0 4.0 0.00 0.00 0.00 59 1012.3
20260506020100 71 263 0.0 4.0 0.00 0.00 0.00 60 1012.2
20260506015557 71 179 1.0 4.0 0.00 0.00 0.00 61 1012.2
20260506015057 71 0 0.0 4.0 0.00 0.00 0.00 60 1012.3
20260506014607 71 241 1.0 7.0 0.00 0.00 0.00 60 1012.3
20260506014056 71 0 1.0 7.0 0.00 0.00 0.00 59 1012.2
20260506013556 71 211 1.0 7.0 0.00 0.00 0.00 59 1012.0
20260506013056 71 242 0.0 6.0 0.00 0.00 0.00 59 1012.1
20260506012557 70 217 0.0 4.0 0.00 0.00 0.00 60 1012.0
20260506012101 70 0 0.0 4.0 0.00 0.00 0.00 60 1012.0
20260506011557 70 232 0.0 4.0 0.00 0.00 0.00 59 1012.0
20260506011057 70 0 0.0 3.0 0.00 0.00 0.00 61 1011.9
20260506010557 70 0 0.0 2.0 0.00 0.00 0.00 61 1011.9
20260506010105 70 315 0.0 3.0 0.00 0.00 0.00 61 1011.9
20260506005558 70 0 0.0 3.0 0.00 0.00 0.00 63 1011.8
20260506005057 70 0 0.0 3.0 0.00 0.00 0.00 59 1011.8
20260506004558 70 0 0.0 2.0 0.00 0.00 0.00 59 1011.9
20260506004057 70 0 0.0 1.0 0.00 0.00 0.00 60 1011.8
20260506003557 70 311 0.0 1.0 0.00 0.00 0.00 60 1011.8
20260506003100 70 0 0.0 1.0 0.00 0.00 0.00 59 1012.0
20260506002556 71 0 0.0 1.0 0.00 0.00 0.00 60 1012.0
20260506002100 71 0 0.0 2.0 0.00 0.00 0.00 57 1012.0
20260506001600 71 0 0.0 2.0 0.00 0.00 0.00 59 1012.1
20260506001057 71 0 0.0 3.0 0.00 0.00 0.00 55 1012.1
20260506000601 71 0 0.0 3.0 0.00 0.00 0.00 59 1012.1
20260506000100 71 294 0.0 3.0 0.00 0.00 0.00 57 1011.9
20260505235600 71 311 0.0 3.0 0.00 0.00 0.00 55 1011.9
20260505235100 71 217 0.0 2.0 0.00 0.00 0.00 55 1011.9
20260505234557 72 0 0.0 5.0 0.00 0.00 0.00 56 1011.9
20260505234057 72 0 0.0 5.0 0.00 0.00 0.00 57 1012.1
20260505233557 72 0 0.0 6.0 0.00 0.00 0.00 53 1011.9
20260505233129 72 0 1.0 6.0 0.00 0.00 0.00 54 1011.9
20260505232557 72 279 0.0 7.0 0.00 0.00 0.00 52 1012.0
20260505232058 72 312 0.0 7.0 0.00 0.00 0.00 53 1012.1
20260505231558 72 0 1.0 4.0 0.00 0.00 0.00 53 1012.0
20260505231056 72 0 0.0 3.0 0.00 0.00 0.00 54 1011.9
20260505230556 72 0 0.0 3.0 0.00 0.00 0.00 56 1012.0
20260505230101 72 306 0.0 3.0 0.00 0.00 0.00 53 1011.9
20260505225557 71 0 0.0 2.0 0.00 0.00 0.00 60 1011.9
20260505225057 71 360 0.0 0.0 0.00 0.00 0.00 57 1012.1
20260505224558 71 0 0.0 2.0 0.00 0.00 0.00 60 1012.2
20260505224103 71 0 0.0 2.0 0.00 0.00 0.00 55 1012.1
20260505223600 71 182 0.0 2.0 0.00 0.00 0.00 57 1012.0
20260505223102 70 0 0.0 3.0 0.00 0.00 0.00 59 1011.9
20260505222600 70 0 0.0 4.0 0.00 0.00 0.00 65 1011.8
20260505222100 70 0 0.0 4.0 0.00 0.00 0.00 56 1011.9
20260505221604 70 196 0.0 4.0 0.00 0.00 0.00 60 1012.0
20260505221104 69 121 1.0 4.0 0.00 0.00 0.00 61 1012.1
20260505220600 69 309 0.0 3.0 0.00 0.00 0.00 67 1011.9
20260505220059 69 0 0.0 3.0 0.00 0.00 0.00 62 1011.9